Regional Weather Roundup
Issued by NWS Sioux Falls, SD

Home | Current Version | Previous Version | Graphics & Text | Print | Product List | Glossary Off
Versions: 1 2 3 4 5 6 7 8 9 10 11 12 13 14 15 16 17 18 19 20 21 22 23 24 25 26 27 28 29 30 31 32 33 34 35 36 37 38 39 40 41 42 43 44 45 46 47 48 49 50

000
ASUS43 KFSD 280402
RWRFSD

WEATHER ROUNDUP FOR SE SOUTH DAKOTA/SW MINNESOTA/NW IOWA
NATIONAL WEATHER SERVICE SIOUX FALLS SD
1100 PM CDT SUN JUL 27 2014

NOTE: "FAIR" INDICATES FEW OR NO CLOUDS BELOW 12,000 FEET WITH NO
SIGNIFICANT WEATHER AND OR OBSTRUCTIONS TO VISIBILITY.


SDZ038>040-050-052>070-280500-
SOUTHEAST SOUTH DAKOTA

CITY           SKY/WX    TMP DP  RH WIND       PRES   REMARKS
CHAMBERLAIN    CLEAR     61  55  79 E5        30.27R
HURON          CLEAR     55  53  93 NW6       30.24R
MADISON        CLOUDY    61  61 100 N9        30.23R
MITCHELL       CLEAR     60  55  83 NW5       30.25R
SIOUX FALLS    MOCLDY    63  57  81 N9        30.21R
WINNER         FAIR      65  52  62 E5        30.27R
YANKTON        CLEAR     61  54  77 NW6       30.23R
$$

MNZ071-072-080-081-089-090-097-098-280500-
SOUTHWEST MINNESOTA

CITY           SKY/WX    TMP DP  RH WIND       PRES   REMARKS
FAIRMONT       CLOUDY    64  55  72 N10       30.13R
JACKSON        CLEAR     61  55  82 NW10      30.17R
LUVERNE        PTCLDY    63  55  77 N10G16    30.21R
MARSHALL       CLEAR     59  54  82 NW9       30.18R
MONTEVIDEO     CLOUDY    63  57  82 N13       30.18S
PIPESTONE      PTCLDY    61  55  82 N7        30.21R
REDWOOD FALLS  CLEAR     64  57  78 NW12      30.15R
TRACY          MOCLDY    60  57  89 CALM      30.19R
WINDOM         PTCLDY    61  55  82 NW10      30.17R
WORTHINGTON    CLEAR     57  55  94 NW9       30.20R
$$

IAZ001>003-012>014-020>022-031-032-NEZ013-014-SDZ071-280500-
NORTHWEST IOWA

CITY           SKY/WX    TMP DP  RH WIND       PRES   REMARKS
CHEROKEE       CLEAR     61  58  89 N7        30.17S
DENISON        CLEAR     63  57  82 NW5       30.16R
ESTHERVILLE    CLEAR     61  57  87 NW10      30.15R
LE MARS        PTCLDY    61  57  88 NW6       30.20R
SIOUX CITY     CLEAR     65  55  70 NW9       30.19R
SPENCER        CLEAR     60  56  86 NW9       30.17R
STORM LAKE     CLEAR     61  61 100 NW10      30.17S
$$

ABBREVIATIONS USED IN REMARKS
   TC - TEMPERATURE IN CELSIUS
  WCI - WIND CHILL INDEX
   HX - HEAT INDEX
  VSB - VISIBILITY



USA.gov is the U.S. government's official web portal to all federal, state and local government web resources and services.